Location: Dominion City
(49.1330°N, 97.1500°W)
Time: 11:30:24
(UTC-06:00)

Daily predictions for brighter satellites

Satellite Brightness Start Highest point End
(mag) Time Altitude Azimuth Time Altitude Azimuth Time Altitude Azimuth
Cosmos 2082 Rocket 3.3 18:22:47 10° SW 18:28:17 48° NW 18:33:50 10° NNE
SL-16 R/B 2.2 18:23:24 10° NNW 18:29:07 79° ENE 18:34:48 10° SSE
Sich 1 Rocket 4.2 18:26:03 10° SSW 18:30:36 67° WNW 18:35:12 10° N
Nadezhda 1 Rocket 3.9 18:25:10 10° N 18:31:16 68° ENE 18:37:18 10° SSE
DNEPR-1 R/B 3.5 18:28:18 10° NW 18:32:42 88° SW 18:36:55 10° SE
Cosmos 1484 Rocket 3.5 18:31:14 10° S 18:35:09 60° W 18:39:02 10° NNW
ATLAS CENTAUR R/B 3.0 18:31:31 10° WSW 18:35:37 33° NW 18:39:30 10° NNE
SJ-6B 3.3 18:32:31 10° SE 18:36:16 39° ENE 18:39:57 10° N
Cosmos 1340 3.6 18:35:17 10° N 18:38:37 28° ENE 18:41:56 10° SE
YAOGAN 1 4.4 18:35:28 10° SSW 18:39:29 37° W 18:43:32 10° NNW
Cosmos 1908 Rocket 4.4 18:35:39 10° SSW 18:39:56 56° WNW 18:44:19 10° N
Cosmos 1238 Rocket 3.6 18:37:52 10° NNE 18:40:11 19° ENE 18:42:24 10° ESE
Resurs 01 Rocket 2.5 18:38:34 10° ESE 18:42:20 28° ENE 18:46:06 10° N
Cosmos 407 Rocket 4.0 18:38:07 10° S 18:42:58 39° ESE 18:47:53 10° NE
Meteor 1-14 Rocket 4.4 18:37:53 10° S 18:43:51 81° E 18:49:53 10° NNE
Cosmos 1782 Rocket 3.7 18:40:46 10° SSW 18:45:13 81° W 18:49:43 10° N
Cosmos 2181 Rocket 4.4 18:39:23 10° N 18:45:16 41° ENE 18:51:11 10° SE
Meteor 1-20 Rocket 4.4 18:41:04 10° S 18:46:44 55° E 18:52:27 10° NNE
Cosmos 2322 Rocket 2.4 18:41:24 10° NNW 18:47:02 78° WSW 18:52:38 10° SSE
Meteor 1-28 Rocket 3.2 18:44:16 10° NNE 18:48:05 70° ESE 18:51:53 10° S
Tiangong 2 3.4 18:48:49 10° WSW 18:51:00 18° SSW 18:53:10 10° SSE
Genesis I 4.2 18:50:28 10° NNW 18:54:00 30° NE 18:56:54 13° E
Meteor 1-13 Rocket 4.4 18:48:52 10° N 18:54:12 46° ENE 18:59:35 10° SE
COSMO-SKYMED 1 2.7 18:50:05 10° NNE 18:54:28 83° WNW 18:58:49 10° SSW
Thor Agena Rocket 4.2 18:51:10 10° N 18:56:09 59° WNW 19:01:06 10° SSW
Cosmos 1300 Rocket 4.5 18:54:40 10° SSE 18:58:24 27° E 19:02:09 10° NNE
Cosmos 2322 3.9 18:54:05 10° NNW 18:59:43 54° NE 19:05:18 10° SE
Cosmos 1536 4.3 18:58:15 10° SE 19:00:50 17° E 19:03:25 10° NE
Okean 1 3.3 18:58:05 10° N 19:02:11 80° E 19:06:15 10° SSE
DMSP B5D1-3 4.5 18:58:07 10° NNE 19:03:17 82° ESE 19:08:27 10° SSW
Cosmos 1833 Rocket 4.4 18:58:33 10° WSW 19:03:33 32° NW 19:08:35 10° NNE
Okean 2 Rocket 3.4 18:59:29 10° SSW 19:03:57 70° WNW 19:08:23 10° N
Resurs 1-3 4.1 19:00:54 10° SE 19:04:56 38° ENE 19:09:01 10° N
Cosmos 1461 3.7 19:01:34 10° NW 19:05:27 51° WSW 19:09:25 10° SSE
CZ-2D R/B 4.1 19:03:30 10° SE 19:06:48 28° ENE 19:10:06 10° N
Cosmos 1140 Rocket 4.3 19:03:52 10° SSE 19:08:11 28° E 19:12:33 10° NE
FENGYUN 3A 3.7 19:02:57 10° SSE 19:08:17 62° ENE 19:13:39 10° N
Cosmos 1190 Rocket 3.9 19:03:20 10° SSW 19:08:30 72° ESE 19:13:42 10° NNE
deb Kosmos-1763 4.0 19:05:46 10° SSW 19:09:33 74° ESE 19:13:21 10° NNE
Cosmos 1709 Rocket 4.0 19:03:41 10° SSE 19:09:44 56° E 19:15:44 10° NNE
USA 186 3.4 19:11:00 17° NE 19:11:00 17° NE 19:12:29 10° NNE
SL-19 R/B 4.4 19:06:26 10° SE 19:12:02 63° ENE 19:18:04 10° NNW
COSMOS 2428 3.2 19:07:18 10° NNW 19:12:39 40° NE 19:16:59 15° ESE
Cosmos 2237 4.5 19:07:42 10° NNW 19:13:17 48° NE 19:18:33 11° SE
Meteor 2-4 Rocket 4.0 19:08:27 10° N 19:13:48 43° ENE 19:18:59 10° SE
H-2A R/B 3.0 19:12:25 10° SE 19:15:58 44° ENE 19:19:33 10° N
Cosmos 2292 Rocket 4.3 19:12:32 10° S 19:17:44 72° E 19:24:46 10° NNE
Spot 2 Rocket 3.5 19:13:22 10° SSE 19:18:20 60° ENE 19:23:21 10° N
Cosmos 1812 4.1 19:15:21 10° NNW 19:19:02 42° W 19:22:41 10° SSW
Meteor 1-25 Rocket 4.4 19:13:47 10° SSW 19:19:24 77° WNW 19:25:09 10° N
Cosmos 2237 Rocket 3.6 19:17:27 10° N 19:21:49 22° NE 19:23:53 18° ENE
Cosmos 2151 Rocket 3.6 19:18:05 10° S 19:22:35 89° ESE 19:27:09 10° N
SAR-Lupe-4 4.0 19:20:40 16° SE 19:23:09 39° ENE 19:26:32 10° N
Helios 1A 3.5 19:21:30 15° SE 19:24:33 38° ENE 19:28:25 10° N
USA 229 DEB 4.0 19:20:21 10° NW 19:27:18 54° NE 19:32:15 20° ESE
USA 229 4.0 19:20:27 10° NW 19:27:24 54° NE 19:32:19 20° ESE
Okean 1 Rocket 3.4 19:24:59 10° SSE 19:29:12 42° E 19:33:27 10° NNE
Cosmos 2285 Rocket 4.4 19:24:25 10° NNW 19:30:33 43° ENE 19:34:37 20° ESE
HJ-1C 3.5 19:29:05 10° S 19:32:27 75° WSW 19:35:51 10° NNW
GEOS 3 Rocket 3.8 19:28:16 13° NE 19:32:44 52° SE 19:37:52 10° SSW
Meteor 1-11 Rocket 3.8 19:28:14 10° S 19:33:52 57° E 19:39:39 10° NNE
Envisat 3.8 19:33:04 25° E 19:34:43 31° ENE 19:39:09 10° N
Cosmos 1954 Rocket 3.9 19:31:09 10° S 19:36:15 61° ESE 19:41:26 10° NNE
Cosmos 2360 Rocket 2.3 19:33:33 10° NNW 19:39:13 76° WSW 19:44:52 10° SSE
Cosmos 2219 4.0 19:35:48 10° SSE 19:40:35 28° ESE 19:41:01 28° E
Cosmos 2219 Rocket 2.7 19:37:00 10° NNW 19:42:14 38° NE 19:44:08 30° E
Okean 1-7 Rocket 3.5 19:39:04 10° N 19:43:37 65° ENE 19:48:06 10° SSE
ATLAS 2AS CENTAUR R/B 4.3 19:37:17 10° NW 19:44:12 29° N 19:49:25 16° NE
ERS-1 Rocket 4.0 19:45:34 26° ENE 19:45:36 26° ENE 19:49:43 10° N
USA 215 3.9 19:41:47 17° ENE 19:46:30 46° N 19:52:40 10° WNW
Cosmos 1633 2.6 19:44:55 10° SSW 19:48:36 82° W 19:52:19 10° N
Cosmos 1602 3.7 19:45:13 10° S 19:49:06 88° W 19:53:02 10° N
Okean 2 3.8 19:48:15 10° N 19:51:59 41° ENE 19:51:59 41° ENE
Cosmos 1025 Rocket 3.0 19:49:13 10° N 19:53:34 62° ENE 19:55:30 31° SSE
SL-16 R/B 3.7 19:49:38 10° N 19:53:36 19° NE 19:54:14 19° NE
ALOS 3.3 19:55:41 10° S 20:00:10 46° W 20:04:41 10° NNW
NOSS 3-1 (C) 4.3 19:53:39 10° NW 20:00:34 47° NE 20:03:46 32° E
Spot 1 3.9 19:59:37 22° SSE 20:02:12 85° WSW 20:06:22 10° NNW
CZ-4B DEB 4.3 20:03:59 25° N 20:03:59 25° N 20:05:30 10° N
Cosmos 1833 4.1 20:00:17 10° SSW 20:06:00 88° ESE 20:11:41 10° NNE
Cosmos 2333 Rocket 2.5 20:02:29 10° NNW 20:08:03 48° NE 20:09:02 43° E
BREEZE-M DEB (TANK) 3.6 20:08:25 10° W 20:10:56 33° SSW 20:12:05 28° SSE
Cosmos 1818 3.7 20:06:40 10° SW 20:12:08 73° NW 20:15:58 20° NNE
ATLAS CENTAUR R/B 4.1 20:14:12 10° NW 20:15:50 12° NNW 20:17:27 10° N
Cosmos 1741 Rocket 3.9 20:11:30 10° S 20:16:40 65° ESE 20:18:34 38° NE
NOSS 0 Rocket 4.0 20:11:54 10° NNW 20:18:01 59° NE 20:19:14 50° E
Resurs 01 Rocket 3.1 20:14:37 10° SSW 20:18:42 36° W 20:22:48 10° NNW
Cosmos 1980 3.9 20:14:51 10° NNW 20:20:20 47° NE 20:20:33 47° ENE
SL-08 ROCKET BODY 4.4 20:14:37 10° S 20:20:48 90° SE 20:27:04 10° N
TSX-5 4.4 20:19:06 10° SW 20:21:44 44° W 20:21:44 44° W
Cosmos 1939 Rocket 4.1 20:27:33 32° N 20:27:33 32° N 20:29:47 10° N
Cosmos 1610 Rocket 4.3 20:21:55 10° S 20:28:04 66° E 20:34:12 10° NNE
Intercosmos 24 4.5 20:25:49 10° SSW 20:30:07 84° W 20:36:27 10° N
Genesis I 4.2 20:28:04 10° NW 20:31:48 41° WSW 20:31:56 41° SW
Meteor 1-5 Rocket 4.2 20:27:48 10° S 20:33:48 87° E 20:39:44 10° NNE
Cosmos 1763 Rocket 4.3 20:29:15 10° NNW 20:32:50 36° NNE 20:32:50 36° NNE
Cosmos 2327 Rocket 4.5 20:28:39 10° S 20:34:53 85° W 20:41:17 10° N
Cosmos 1536 3.8 20:33:04 10° SSW 20:36:56 46° WNW 20:40:48 10° N
USA 186 4.4 20:42:24 18° NW 20:42:24 18° NW 20:43:32 10° NW
Cosmos 405 Rocket 4.1 20:39:47 10° NNW 20:42:19 36° NNW 20:42:19 36° NNW
Cosmos 1140 Rocket 4.4 20:44:49 10° SW 20:49:46 46° WNW 20:54:46 10° NNE
Cosmos 2074 Rocket 4.5 20:48:02 10° SSW 20:54:11 60° WNW 21:00:26 10° N
Cosmos 468 Rocket 4.1 20:49:20 10° NNW 20:54:04 71° NW 20:54:04 71° NW
Cosmos 2184 Rocket 4.4 20:48:44 10° SSW 20:54:59 62° WNW 21:01:12 10° N
COSMOS 2428 3.7 20:51:39 10° NW 20:56:58 41° WSW 20:59:03 30° SSW
Cosmos 2237 Rocket 2.5 21:00:58 10° NNW 21:05:44 63° NNW 21:05:44 63° NNW
Nadezhda 3 Rocket 4.2 21:05:19 10° NNW 21:11:25 67° W 21:12:03 62° SW
Envisat 4.0 21:13:16 42° WSW 21:13:36 42° W 21:18:26 10° NNW
USA 229 DEB 4.4 21:11:31 10° NW 21:18:17 48° WSW 21:19:44 42° SSW
USA 229 4.4 21:11:37 10° NW 21:18:23 48° WSW 21:19:49 43° SSW
H-2A R/B 4.0 21:26:52 22° N 21:26:52 22° N 21:28:46 10° N
Cosmos 2154 Rocket 4.2 21:23:57 67° NW 21:23:57 67° NW 21:29:57 10° N
ERS-1 Rocket 4.2 21:25:34 39° NW 21:25:34 39° NW 21:29:02 10° NNW
Cosmos 2219 4.0 21:18:46 10° SW 21:23:09 47° W 21:23:09 47° W
Cosmos 2219 Rocket 3.2 21:21:01 10° NW 21:25:54 42° W 21:25:54 42° W
USA 215 3.7 21:29:06 50° N 21:29:06 50° N 21:35:10 10° WNW
NOSS 3-1 (A) 3.9 21:23:51 10° NW 21:30:52 82° NNW 21:30:52 82° NNW
ATLAS 2AS CENTAUR R/B 3.6 21:29:29 10° NW 21:36:51 46° NNE 21:36:51 46° NNE
SL-16 R/B 3.6 21:33:02 10° NNW 21:36:07 33° NNW 21:36:07 33° NNW
NOSS 3-1 (C) 4.3 21:44:32 10° NW 21:51:11 61° W 21:51:11 61° W
Cosmos 2333 Rocket 3.7 21:47:03 10° NW 21:51:05 31° W 21:51:05 31° W
